Main page
METAR-TAF:

METAR-TAF

Airports :

Calais–Dunkerque Airport

Calais, France

latitude: 50-57-39N, longitude: 001-57-05E, elevation: 4 m

Current weather observation

The report was made 23 minutes ago, at 18:00 UTC
Wind 15 kt from the West/Southwest
Temperature 8°C
Humidity 93%
Pressure 1023 hPa
Visibility 10 km or more
Broken clouds at a height of 1000 ft

METAR: LFAC 291800Z AUTO 25015KT 9999 BKN010 08/07 Q1023

Time: 19:23 (18:23 UTC)


TAF: missing

Weather observations and forecasts of more than 4000 airports (METAR and TAF reports).

The available stations are represented by yellow and red dots on the map.

Hover mouse over dot to see the name of the station.

Then click to see weather observations and forecasts.

To change the map : click on the green buttons with a black cross to zoom in, on the green button with a dash to zoom out, or on the green arrows for adjacent maps.


METAR-TAF: